QPF
0.00 0.00 0.00 0.00 0.00 0.00 0.00 0.00 0.00 0.00 0.00 0.00 0.00 0.02 0.02 0.03 0.02 0.02 0.02 0.07 0.10 0.06 0.03 0.03 0.03 0.05 0.07 0.10 0.14 0.18 0.23 0.33 0.39 0.42 0.49 0.52 0.47 0.45 0.45 0.44 0.51 0.52 0.47 0.39
0.00 0.00 0.00 0.00 0.00 0.00 0.00 0.00 0.00 0.01 0.01 0.00 0.00 0.02 0.04 0.04 0.04 0.04 0.04 0.04 0.05 0.04 0.04 0.04 0.03 0.05 0.07 0.08 0.09 0.14 0.18 0.22 0.27 0.37 0.47 0.55 0.52 0.46 0.43 0.41 0.36 0.38 0.39 0.36
0.00 0.00 0.00 0.00 0.00 0.00 0.00 0.00 0.00 0.01 0.01 0.01 0.01 0.02 0.04 0.05 0.06 0.07 0.08 0.07 0.07 0.07 0.06 0.05 0.05 0.06 0.07 0.07 0.07 0.09 0.09 0.12 0.16 0.20 0.28 0.36 0.41 0.41 0.37 0.33 0.28 0.23 0.23 0.27
0.00 0.00 0.00 0.00 0.00 0.00 0.00 0.00 0.01 0.01 0.01 0.01 0.01 0.02 0.05 0.07 0.09 0.10 0.08 0.07 0.06 0.06 0.06 0.05 0.07 0.07 0.07 0.07 0.08 0.08 0.08 0.10 0.13 0.14 0.16 0.19 0.22 0.26 0.25 0.23 0.20 0.17 0.16 0.16
0.00 0.00 0.00 0.00 0.00 0.00 0.00 0.00 0.01 0.01 0.00 0.00 0.01 0.02 0.05 0.07 0.08 0.08 0.08 0.07 0.06 0.04 0.04 0.04 0.05 0.05 0.05 0.09 0.12 0.11 0.08 0.09 0.11 0.11 0.11 0.11 0.12 0.15 0.19 0.19 0.15 0.13 0.12 0.11
0.00 0.00 0.00 0.00 0.00 0.00 0.00 0.00 0.00 0.00 0.00 0.01 0.02 0.04 0.07 0.09 0.13 0.15 0.14 0.09 0.06 0.04 0.03 0.03 0.03 0.03 0.04 0.08 0.10 0.10 0.10 0.10 0.13 0.13 0.10 0.09 0.09 0.11 0.15 0.17 0.15 0.14 0.12 0.10
0.00 0.00 0.00 0.00 0.00 0.00 0.00 0.00 0.01 0.01 0.01 0.02 0.03 0.07 0.10 0.12 0.13 0.14 0.15 0.09 0.06 0.04 0.03 0.02 0.02 0.01 0.02 0.07 0.07 0.06 0.07 0.06 0.07 0.08 0.08 0.08 0.08 0.10 0.13 0.15 0.14 0.13 0.13 0.12
0.01 0.01 0.01 0.00 0.00 0.00 0.00 0.00 0.02 0.02 0.03 0.03 0.04 0.09 0.17 0.17 0.13 0.14 0.16 0.12 0.08 0.05 0.03 0.02 0.03 0.02 0.02 0.05 0.07 0.05 0.05 0.05 0.05 0.06 0.07 0.08 0.09 0.12 0.16 0.13 0.10 0.09 0.09 0.10
0.01 0.00 0.00 0.00 0.00 0.00 0.00 0.00 0.01 0.01 0.02 0.03 0.07 0.09 0.13 0.13 0.16 0.22 0.23 0.20 0.11 0.05 0.03 0.02 0.04 0.04 0.03 0.03 0.06 0.07 0.05 0.05 0.05 0.06 0.07 0.08 0.09 0.09 0.10 0.11 0.09 0.06 0.05 0.06
0.00 0.00 0.01 0.01 0.00 0.00 0.01 0.01 0.01 0.01 0.02 0.04 0.07 0.10 0.11 0.11 0.13 0.13 0.14 0.12 0.06 0.03 0.02 0.02 0.03 0.06 0.04 0.03 0.04 0.09 0.12 0.08 0.05 0.05 0.06 0.06 0.06 0.06 0.06 0.06 0.04 0.03 0.03 0.04
0.00 0.00 0.00 0.01 0.01 0.01 0.01 0.01 0.01 0.02 0.04 0.06 0.08 0.12 0.09 0.11 0.14 0.09 0.06 0.04 0.03 0.03 0.02 0.01 0.01 0.02 0.02 0.02 0.02 0.03 0.06 0.09 0.09 0.07 0.05 0.05 0.05 0.05 0.03 0.03 0.02 0.02 0.01 0.02
0.00 0.00 0.01 0.01 0.01 0.01 0.01 0.02 0.02 0.03 0.03 0.04 0.05 0.07 0.06 0.08 0.09 0.08 0.05 0.04 0.02 0.03 0.03 0.02 0.02 0.02 0.02 0.03 0.03 0.02 0.02 0.03 0.05 0.05 0.04 0.04 0.03 0.03 0.03 0.02 0.02 0.01 0.01 0.01
0.00 0.01 0.01 0.01 0.02 0.01 0.01 0.01 0.02 0.02 0.02 0.02 0.03 0.07 0.06 0.05 0.06 0.06 0.05 0.03 0.02 0.02 0.03 0.03 0.03 0.04 0.06 0.05 0.04 0.03 0.03 0.02 0.03 0.03 0.03 0.03 0.03 0.03 0.03 0.02 0.01 0.01 0.01 0.01
0.01 0.03 0.03 0.02 0.02 0.01 0.01 0.01 0.01 0.02 0.01 0.01 0.02 0.04 0.05 0.05 0.06 0.05 0.03 0.02 0.01 0.01 0.01 0.02 0.02 0.03 0.04 0.04 0.03 0.03 0.03 0.03 0.04 0.04 0.03 0.03 0.03 0.02 0.02 0.02 0.02 0.01 0.01 0.01
0.01 0.02 0.03 0.01 0.01 0.01 0.01 0.01 0.01 0.01 0.01 0.01 0.02 0.04 0.04 0.03 0.04 0.03 0.02 0.01 0.01 0.01 0.02 0.02 0.01 0.01 0.01 0.02 0.02 0.02 0.02 0.02 0.03 0.04 0.03 0.03 0.03 0.03 0.03 0.03 0.02 0.02 0.01 0.02
0.02 0.02 0.02 0.02 0.02 0.02 0.02 0.02 0.01 0.01 0.01 0.01 0.02 0.04 0.05 0.05 0.04 0.02 0.01 0.01 0.01 0.01 0.02 0.02 0.01 0.01 0.01 0.01 0.01 0.03 0.03 0.03 0.03 0.04 0.04 0.03 0.04 0.04 0.04 0.04 0.03 0.02 0.02 0.02
0.03 0.04 0.04 0.03 0.03 0.04 0.04 0.02 0.01 0.01 0.01 0.01 0.03 0.04 0.04 0.04 0.04 0.03 0.02 0.02 0.03 0.03 0.03 0.03 0.02 0.01 0.02 0.02 0.02 0.02 0.03 0.04 0.03 0.04 0.04 0.04 0.04 0.04 0.03 0.03 0.03 0.02 0.02 0.01
0.04 0.04 0.05 0.05 0.05 0.09 0.06 0.02 0.01 0.01 0.01 0.02 0.02 0.03 0.03 0.03 0.04 0.03 0.02 0.02 0.02 0.02 0.02 0.02 0.02 0.02 0.02 0.02 0.02 0.02 0.02 0.04 0.05 0.04 0.04 0.03 0.03 0.03 0.03 0.02 0.02 0.02 0.02 0.01
0.04 0.03 0.05 0.06 0.08 0.11 0.06 0.02 0.02 0.02 0.03 0.02 0.01 0.01 0.01 0.01 0.01 0.02 0.02 0.01 0.01 0.02 0.02 0.02 0.03 0.03 0.02 0.03 0.03 0.03 0.04 0.04 0.05 0.05 0.04 0.03 0.02 0.02 0.02 0.02 0.02 0.02 0.01 0.01
0.03 0.02 0.05 0.08 0.12 0.12 0.05 0.02 0.02 0.01 0.02 0.02 0.01 0.01 0.00 0.00 0.00 0.01 0.01 0.01 0.01 0.02 0.02 0.03 0.03 0.03 0.03 0.03 0.04 0.04 0.04 0.05 0.04 0.04 0.03 0.03 0.03 0.02 0.02 0.03 0.02 0.02 0.01 0.01
0.04 0.04 0.07 0.10 0.09 0.09 0.03 0.02 0.01 0.02 0.02 0.01 0.01 0.00 0.00 0.01 0.00 0.00 0.00 0.01 0.01 0.02 0.03 0.03 0.03 0.03 0.02 0.02 0.03 0.03 0.02 0.03 0.03 0.03 0.02 0.02 0.03 0.03 0.02 0.02 0.02 0.02 0.02 0.01
0.07 0.06 0.07 0.07 0.07 0.08 0.03 0.01 0.01 0.01 0.00 0.00 0.00 0.00 0.00 0.00 0.00 0.00 0.00 0.01 0.01 0.02 0.02 0.02 0.02 0.02 0.02 0.02 0.02 0.02 0.02 0.02 0.02 0.02 0.01 0.01 0.01 0.02 0.01 0.02 0.02 0.01 0.01 0.01
0.09 0.07 0.05 0.06 0.05 0.03 0.02 0.02 0.01 0.00 0.00 0.00 0.00 0.00 0.00 0.00 0.00 0.00 0.00 0.01 0.01 0.01 0.01 0.02 0.02 0.02 0.02 0.01 0.01 0.02 0.01 0.01 0.01 0.01 0.01 0.01 0.01 0.01 0.01 0.02 0.02 0.01 0.01 0.01
0.11 0.08 0.06 0.05 0.04 0.02 0.01 0.01 0.00 0.00 0.00 0.00 0.00 0.00 0.00 0.00 0.00 0.00 0.00 0.01 0.01 0.01 0.01 0.02 0.02 0.02 0.02 0.01 0.01 0.01 0.01 0.01 0.01 0.01 0.01 0.01 0.01 0.01 0.01 0.01 0.01 0.01 0.01 0.01
0.10 0.08 0.06 0.05 0.05 0.03 0.02 0.01 0.00 0.00 0.00 0.00 0.00 0.00 0.00 0.00 0.00 0.00 0.00 0.01 0.01 0.01 0.01 0.02 0.02 0.02 0.02 0.01 0.01 0.00 0.00 0.00 0.01 0.01 0.01 0.01 0.01 0.01 0.00 0.00 0.00 0.00 0.00 0.00
0.07 0.05 0.04 0.04 0.03 0.02 0.01 0.01 0.00 0.00 0.00 0.00 0.00 0.00 0.00 0.00 0.00 0.01 0.00 0.01 0.01 0.01 0.02 0.02 0.02 0.02 0.01 0.01 0.01 0.00 0.01 0.01 0.01 0.01 0.01 0.01 0.01 0.01 0.00 0.00 0.00 0.00 0.00 0.00
MSLP
1012.07 1012.66 1013.04 1013.19 1013.13 1012.92 1012.65 1012.39 1012.19 1012.09 1012.08 1012.16 1012.30 1012.45 1012.61 1012.75 1012.89 1013.02 1013.16 1013.31 1013.45 1013.57 1013.63 1013.60 1013.47 1013.22 1012.88 1012.47 1012.06 1011.70 1011.44 1011.34 1011.41 1011.64 1012.01 1012.47 1012.98 1013.48 1013.92 1014.29 1014.57 1014.75 1014.87 1014.93
1012.33 1012.74 1012.93 1012.93 1012.78 1012.57 1012.36 1012.24 1012.24 1012.35 1012.56 1012.82 1013.08 1013.31 1013.49 1013.62 1013.71 1013.78 1013.87 1013.99 1014.11 1014.22 1014.29 1014.25 1014.10 1013.81 1013.41 1012.94 1012.45 1012.02 1011.71 1011.58 1011.64 1011.89 1012.28 1012.78 1013.32 1013.84 1014.30 1014.66 1014.92 1015.08 1015.17 1015.21
1012.35 1012.58 1012.61 1012.48 1012.28 1012.10 1012.01 1012.07 1012.29 1012.63 1013.05 1013.49 1013.87 1014.16 1014.34 1014.43 1014.45 1014.47 1014.50 1014.58 1014.69 1014.81 1014.89 1014.87 1014.72 1014.43 1014.00 1013.49 1012.95 1012.47 1012.12 1011.95 1012.00 1012.24 1012.65 1013.17 1013.72 1014.26 1014.72 1015.08 1015.33 1015.48 1015.56 1015.59
1012.18 1012.23 1012.12 1011.92 1011.72 1011.62 1011.68 1011.95 1012.40 1012.98 1013.60 1014.19 1014.66 1014.98 1015.14 1015.16 1015.12 1015.06 1015.03 1015.08 1015.19 1015.33 1015.44 1015.47 1015.36 1015.09 1014.67 1014.14 1013.58 1013.07 1012.68 1012.48 1012.49 1012.71 1013.10 1013.61 1014.15 1014.68 1015.14 1015.49 1015.74 1015.90 1015.99 1016.03
1011.88 1011.80 1011.59 1011.36 1011.21 1011.23 1011.47 1011.95 1012.63 1013.42 1014.21 1014.91 1015.43 1015.75 1015.86 1015.81 1015.67 1015.54 1015.46 1015.49 1015.61 1015.78 1015.95 1016.05 1016.01 1015.79 1015.42 1014.91 1014.35 1013.82 1013.40 1013.15 1013.12 1013.29 1013.63 1014.08 1014.59 1015.09 1015.52 1015.87 1016.13 1016.30 1016.41 1016.48
1011.58 1011.39 1011.13 1010.91 1010.84 1010.99 1011.42 1012.11 1012.98 1013.94 1014.85 1015.62 1016.15 1016.43 1016.47 1016.33 1016.11 1015.90 1015.78 1015.80 1015.94 1016.17 1016.42 1016.61 1016.66 1016.54 1016.23 1015.78 1015.24 1014.70 1014.26 1013.96 1013.86 1013.95 1014.22 1014.60 1015.04 1015.48 1015.88 1016.21 1016.47 1016.66 1016.80 1016.91
1011.36 1011.10 1010.82 1010.64 1010.66 1010.96 1011.55 1012.39 1013.41 1014.48 1015.46 1016.24 1016.75 1016.97 1016.93 1016.70 1016.41 1016.15 1016.00 1016.02 1016.21 1016.51 1016.85 1017.15 1017.31 1017.29 1017.08 1016.70 1016.21 1015.69 1015.23 1014.89 1014.71 1014.72 1014.88 1015.17 1015.52 1015.89 1016.23 1016.53 1016.78 1016.99 1017.16 1017.31
1011.30 1010.99 1010.71 1010.58 1010.69 1011.09 1011.79 1012.75 1013.84 1014.95 1015.94 1016.69 1017.15 1017.30 1017.19 1016.90 1016.56 1016.28 1016.14 1016.19 1016.43 1016.81 1017.26 1017.66 1017.94 1018.04 1017.94 1017.64 1017.22 1016.73 1016.27 1015.89 1015.65 1015.57 1015.63 1015.80 1016.06 1016.34 1016.62 1016.87 1017.10 1017.31 1017.50 1017.70
1011.39 1011.05 1010.78 1010.69 1010.86 1011.33 1012.09 1013.07 1014.18 1015.27 1016.21 1016.90 1017.30 1017.39 1017.24 1016.93 1016.59 1016.33 1016.23 1016.34 1016.65 1017.12 1017.65 1018.16 1018.55 1018.76 1018.76 1018.57 1018.22 1017.78 1017.33 1016.94 1016.65 1016.49 1016.45 1016.53 1016.68 1016.87 1017.08 1017.28 1017.48 1017.68 1017.88 1018.09
1011.59 1011.23 1010.97 1010.91 1011.10 1011.59 1012.34 1013.29 1014.34 1015.34 1016.21 1016.83 1017.17 1017.24 1017.10 1016.83 1016.54 1016.35 1016.34 1016.53 1016.92 1017.46 1018.07 1018.66 1019.14 1019.44 1019.53 1019.43 1019.16 1018.78 1018.37 1017.98 1017.67 1017.45 1017.35 1017.34 1017.40 1017.51 1017.65 1017.80 1017.96 1018.13 1018.31 1018.53
1011.80 1011.45 1011.21 1011.16 1011.35 1011.79 1012.48 1013.34 1014.27 1015.16 1015.92 1016.47 1016.79 1016.88 1016.80 1016.63 1016.47 1016.41 1016.51 1016.80 1017.27 1017.88 1018.54 1019.18 1019.71 1020.07 1020.23 1020.20 1020.01 1019.70 1019.34 1018.98 1018.67 1018.43 1018.28 1018.21 1018.21 1018.26 1018.33 1018.43 1018.55 1018.69 1018.85 1019.04
1011.96 1011.64 1011.42 1011.37 1011.53 1011.91 1012.49 1013.21 1013.99 1014.75 1015.41 1015.91 1016.24 1016.40 1016.44 1016.43 1016.44 1016.55 1016.80 1017.20 1017.75 1018.40 1019.08 1019.72 1020.26 1020.64 1020.85 1020.87 1020.75 1020.51 1020.21 1019.89 1019.61 1019.38 1019.21 1019.11 1019.07 1019.07 1019.11 1019.17 1019.25 1019.35 1019.48 1019.63
1011.99 1011.74 1011.56 1011.52 1011.64 1011.94 1012.39 1012.95 1013.58 1014.20 1014.77 1015.25 1015.62 1015.89 1016.10 1016.28 1016.51 1016.81 1017.21 1017.73 1018.34 1019.01 1019.67 1020.29 1020.79 1021.16 1021.37 1021.43 1021.35 1021.18 1020.94 1020.69 1020.45 1020.24 1020.09 1019.98 1019.93 1019.91 1019.93 1019.96 1020.02 1020.10 1020.19 1020.30
1011.92 1011.74 1011.63 1011.61 1011.69 1011.90 1012.22 1012.64 1013.11 1013.62 1014.12 1014.59 1015.03 1015.44 1015.84 1016.25 1016.69 1017.19 1017.75 1018.36 1019.01 1019.67 1020.29 1020.83 1021.28 1021.60 1021.79 1021.86 1021.82 1021.70 1021.53 1021.34 1021.15 1020.98 1020.85 1020.76 1020.71 1020.70 1020.71 1020.75 1020.80 1020.86 1020.93 1021.01
1011.77 1011.70 1011.66 1011.66 1011.72 1011.86 1012.06 1012.34 1012.69 1013.09 1013.55 1014.04 1014.56 1015.12 1015.71 1016.33 1016.98 1017.66 1018.35 1019.03 1019.69 1020.31 1020.87 1021.33 1021.69 1021.95 1022.11 1022.17 1022.15 1022.08 1021.96 1021.83 1021.69 1021.57 1021.48 1021.41 1021.38 1021.38 1021.41 1021.46 1021.53 1021.59 1021.66 1021.72
1011.63 1011.66 1011.69 1011.72 1011.77 1011.84 1011.95 1012.12 1012.36 1012.69 1013.12 1013.64 1014.25 1014.95 1015.71 1016.51 1017.34 1018.15 1018.94 1019.66 1020.31 1020.88 1021.35 1021.72 1022.00 1022.19 1022.31 1022.36 1022.36 1022.32 1022.26 1022.18 1022.09 1022.01 1021.94 1021.90 1021.89 1021.91 1021.97 1022.05 1022.14 1022.24 1022.32 1022.38
1011.60 1011.70 1011.77 1011.82 1011.85 1011.87 1011.90 1011.98 1012.15 1012.43 1012.84 1013.40 1014.09 1014.90 1015.80 1016.74 1017.69 1018.60 1019.44 1020.18 1020.80 1021.30 1021.69 1021.97 1022.18 1022.31 1022.40 1022.45 1022.47 1022.47 1022.44 1022.40 1022.35 1022.30 1022.26 1022.23 1022.24 1022.29 1022.38 1022.49 1022.63 1022.76 1022.88 1022.98
1011.72 1011.84 1011.92 1011.95 1011.94 1011.91 1011.88 1011.91 1012.03 1012.28 1012.70 1013.29 1014.04 1014.94 1015.93 1016.96 1017.99 1018.95 1019.80 1020.52 1021.10 1021.54 1021.85 1022.07 1022.22 1022.32 1022.40 1022.46 1022.50 1022.53 1022.55 1022.54 1022.52 1022.48 1022.45 1022.44 1022.47 1022.53 1022.64 1022.80 1022.98 1023.17 1023.34 1023.48
1012.01 1012.08 1012.11 1012.09 1012.02 1011.93 1011.85 1011.84 1011.94 1012.19 1012.62 1013.24 1014.04 1014.99 1016.04 1017.12 1018.18 1019.15 1019.99 1020.67 1021.20 1021.59 1021.86 1022.03 1022.15 1022.25 1022.34 1022.42 1022.51 1022.58 1022.62 1022.65 1022.64 1022.62 1022.59 1022.58 1022.61 1022.69 1022.82 1023.01 1023.24 1023.48 1023.71 1023.90
1012.40 1012.35 1012.28 1012.16 1012.02 1011.87 1011.75 1011.71 1011.81 1012.08 1012.54 1013.20 1014.04 1015.03 1016.10 1017.20 1018.25 1019.20 1020.01 1020.66 1021.15 1021.50 1021.74 1021.90 1022.03 1022.14 1022.26 1022.39 1022.51 1022.63 1022.71 1022.76 1022.77 1022.75 1022.73 1022.71 1022.74 1022.82 1022.98 1023.19 1023.45 1023.73 1024.01 1024.26
1012.80 1012.59 1012.37 1012.13 1011.89 1011.68 1011.54 1011.50 1011.62 1011.93 1012.43 1013.14 1014.02 1015.03 1016.11 1017.20 1018.23 1019.14 1019.91 1020.53 1020.99 1021.32 1021.56 1021.73 1021.89 1022.04 1022.21 1022.39 1022.56 1022.71 1022.83 1022.91 1022.93 1022.92 1022.90 1022.89 1022.91 1023.00 1023.15 1023.38 1023.67 1023.99 1024.30 1024.59
1013.09 1012.70 1012.31 1011.94 1011.62 1011.36 1011.21 1011.20 1011.37 1011.73 1012.30 1013.06 1013.98 1015.01 1016.09 1017.15 1018.15 1019.03 1019.77 1020.35 1020.80 1021.13 1021.38 1021.59 1021.79 1021.99 1022.21 1022.43 1022.65 1022.85 1023.00 1023.10 1023.14 1023.14 1023.13 1023.12 1023.15 1023.24 1023.40 1023.64 1023.93 1024.26 1024.60 1024.91
1013.17 1012.60 1012.07 1011.59 1011.20 1010.93 1010.80 1010.84 1011.08 1011.53 1012.17 1012.99 1013.95 1014.99 1016.07 1017.11 1018.07 1018.92 1019.63 1020.20 1020.64 1020.98 1021.26 1021.51 1021.75 1022.00 1022.27 1022.54 1022.80 1023.02 1023.20 1023.32 1023.39 1023.41 1023.41 1023.42 1023.46 1023.55 1023.72 1023.96 1024.25 1024.58 1024.92 1025.23
1012.98 1012.28 1011.64 1011.11 1010.70 1010.45 1010.37 1010.50 1010.84 1011.38 1012.11 1012.99 1013.98 1015.03 1016.09 1017.11 1018.04 1018.86 1019.54 1020.10 1020.55 1020.91 1021.22 1021.51 1021.79 1022.08 1022.38 1022.68 1022.96 1023.21 1023.41 1023.55 1023.64 1023.68 1023.71 1023.74 1023.80 1023.92 1024.09 1024.33 1024.62 1024.93 1025.24 1025.53
1012.50 1011.73 1011.07 1010.53 1010.17 1009.99 1010.01 1010.25 1010.70 1011.34 1012.14 1013.08 1014.09 1015.15 1016.19 1017.18 1018.07 1018.86 1019.52 1020.08 1020.54 1020.92 1021.26 1021.57 1021.89 1022.20 1022.52 1022.83 1023.12 1023.37 1023.58 1023.74 1023.85 1023.92 1023.98 1024.05 1024.14 1024.28 1024.47 1024.70 1024.97 1025.26 1025.55 1025.80
1011.76 1011.01 1010.39 1009.94 1009.67 1009.62 1009.77 1010.15 1010.71 1011.45 1012.32 1013.29 1014.31 1015.35 1016.35 1017.30 1018.15 1018.91 1019.55 1020.11 1020.57 1020.98 1021.34 1021.68 1022.01 1022.33 1022.65 1022.95 1023.23 1023.47 1023.68 1023.84 1023.97 1024.08 1024.17 1024.28 1024.41 1024.58 1024.78 1025.01 1025.27 1025.53 1025.78 1026.00
Thickness
5717 5700 5691 5699 5704 5704 5707 5706 5704 5715 5731 5722 5711 5705 5706 5711 5709 5704 5702 5700 5698 5696 5696 5697 5699 5699 5699 5699 5701 5701 5700 5698 5696 5695 5694 5692 5690 5691 5692 5692 5692 5692 5692 5693
5695 5692 5709 5716 5716 5714 5711 5704 5704 5714 5727 5719 5703 5695 5698 5699 5697 5694 5692 5691 5689 5688 5687 5687 5687 5686 5685 5687 5689 5691 5692 5691 5690 5687 5686 5686 5683 5683 5684 5684 5684 5685 5685 5687
5688 5704 5721 5717 5712 5711 5709 5704 5704 5707 5713 5711 5698 5682 5683 5685 5686 5686 5682 5680 5679 5679 5678 5676 5675 5673 5673 5674 5676 5680 5681 5682 5682 5682 5680 5678 5677 5676 5675 5674 5675 5676 5678 5679
5697 5714 5718 5714 5713 5714 5699 5717 5716 5710 5693 5680 5687 5659 5668 5672 5671 5671 5669 5668 5666 5667 5668 5667 5664 5663 5663 5663 5665 5668 5670 5672 5673 5673 5672 5672 5670 5669 5668 5665 5665 5666 5669 5671
5697 5712 5711 5709 5717 5721 5712 5722 5715 5707 5690 5674 5674 5659 5657 5665 5660 5659 5659 5659 5658 5657 5657 5656 5654 5654 5654 5654 5654 5656 5658 5660 5662 5664 5663 5663 5661 5660 5660 5658 5657 5658 5661 5663
5706 5721 5720 5720 5728 5728 5723 5711 5698 5683 5670 5656 5665 5657 5650 5656 5659 5656 5652 5651 5649 5648 5648 5646 5644 5644 5643 5643 5643 5644 5647 5648 5651 5652 5653 5653 5653 5651 5651 5649 5648 5649 5650 5652
5697 5710 5722 5727 5715 5717 5708 5679 5655 5651 5642 5646 5663 5654 5647 5658 5662 5656 5648 5644 5641 5640 5639 5637 5634 5633 5633 5632 5633 5634 5635 5636 5638 5640 5641 5642 5642 5642 5641 5639 5639 5640 5641 5642
5679 5683 5710 5720 5712 5702 5698 5680 5650 5638 5635 5640 5652 5644 5646 5654 5655 5651 5645 5639 5635 5631 5629 5627 5625 5624 5624 5623 5623 5624 5624 5625 5626 5627 5629 5629 5630 5631 5630 5630 5630 5630 5631 5631
5680 5684 5714 5721 5721 5709 5692 5680 5675 5652 5647 5636 5637 5639 5643 5647 5644 5640 5636 5633 5627 5623 5621 5619 5617 5615 5614 5613 5613 5612 5612 5612 5614 5615 5617 5617 5619 5619 5619 5619 5620 5620 5620 5621
5693 5684 5700 5712 5713 5708 5699 5687 5663 5648 5634 5627 5635 5634 5634 5638 5637 5635 5631 5625 5620 5616 5613 5611 5608 5606 5604 5602 5601 5602 5601 5602 5602 5603 5605 5606 5606 5607 5608 5608 5609 5609 5609 5609
5695 5679 5684 5692 5689 5686 5688 5681 5666 5647 5640 5627 5621 5629 5650 5644 5640 5634 5626 5619 5614 5609 5606 5602 5600 5597 5594 5592 5591 5591 5591 5590 5590 5591 5593 5593 5593 5594 5595 5596 5597 5598 5598 5599
5691 5674 5666 5679 5695 5701 5691 5682 5666 5647 5642 5635 5625 5628 5653 5646 5639 5631 5622 5615 5609 5604 5599 5594 5591 5587 5585 5582 5581 5580 5579 5579 5579 5580 5580 5580 5581 5582 5583 5583 5584 5586 5587 5587
5688 5668 5652 5657 5668 5683 5683 5683 5676 5658 5643 5633 5625 5631 5645 5640 5631 5625 5617 5610 5603 5597 5591 5586 5581 5578 5575 5572 5571 5569 5569 5568 5568 5569 5569 5569 5569 5569 5570 5571 5572 5574 5575 5575
5690 5665 5654 5650 5657 5670 5675 5680 5678 5660 5641 5637 5639 5636 5634 5631 5624 5617 5610 5603 5597 5591 5585 5578 5572 5568 5565 5563 5561 5560 5559 5558 5557 5557 5557 5557 5557 5557 5558 5558 5560 5561 5562 5562
5681 5666 5669 5671 5677 5679 5678 5679 5678 5669 5659 5647 5646 5640 5636 5631 5623 5614 5605 5597 5591 5585 5578 5572 5565 5560 5556 5553 5552 5550 5549 5548 5547 5546 5546 5546 5546 5546 5546 5547 5547 5548 5550 5550
5672 5666 5668 5666 5676 5676 5674 5678 5677 5672 5664 5654 5646 5637 5638 5628 5617 5608 5600 5593 5586 5578 5571 5564 5559 5553 5549 5546 5544 5541 5540 5539 5538 5536 5536 5536 5536 5535 5535 5536 5536 5537 5538 5538
5663 5659 5654 5650 5665 5667 5657 5668 5669 5665 5663 5654 5641 5636 5630 5619 5612 5604 5596 5588 5580 5573 5565 5558 5552 5546 5542 5538 5535 5533 5532 5530 5529 5528 5527 5526 5526 5526 5526 5526 5526 5526 5526 5526
5660 5652 5644 5644 5649 5639 5656 5674 5673 5663 5658 5656 5646 5635 5628 5619 5607 5598 5590 5582 5574 5566 5558 5551 5545 5539 5534 5531 5528 5526 5524 5523 5522 5520 5519 5518 5518 5517 5517 5517 5517 5517 5517 5516
5666 5655 5643 5635 5634 5641 5658 5669 5667 5654 5644 5647 5638 5627 5616 5607 5596 5586 5582 5576 5568 5560 5552 5544 5538 5533 5528 5524 5522 5520 5518 5516 5515 5514 5512 5512 5511 5510 5510 5509 5509 5509 5509 5508
5665 5658 5643 5635 5632 5631 5653 5670 5673 5657 5635 5640 5634 5622 5611 5603 5590 5582 5575 5568 5560 5552 5544 5537 5531 5526 5522 5518 5516 5513 5511 5510 5510 5509 5508 5507 5506 5505 5504 5503 5503 5503 5503 5502
5648 5646 5640 5634 5631 5642 5661 5670 5668 5641 5637 5639 5631 5621 5610 5601 5594 5582 5571 5561 5552 5545 5538 5532 5526 5521 5517 5514 5511 5508 5506 5505 5505 5505 5503 5502 5501 5500 5499 5498 5497 5497 5496 5495
5640 5638 5637 5632 5628 5637 5663 5664 5653 5645 5645 5636 5625 5615 5605 5594 5585 5574 5564 5554 5545 5538 5531 5526 5520 5516 5513 5510 5508 5505 5503 5502 5501 5500 5499 5497 5496 5497 5495 5493 5492 5492 5491 5489
5643 5644 5641 5638 5639 5652 5658 5656 5653 5648 5637 5628 5618 5609 5599 5588 5577 5567 5556 5547 5540 5534 5527 5522 5517 5512 5509 5508 5505 5502 5500 5499 5498 5496 5495 5493 5492 5491 5490 5489 5487 5486 5485 5483
5647 5650 5644 5640 5646 5651 5651 5651 5648 5644 5635 5625 5616 5605 5595 5584 5572 5561 5551 5542 5535 5529 5523 5518 5514 5510 5507 5505 5503 5500 5499 5498 5496 5493 5491 5490 5488 5486 5485 5484 5483 5481 5480 5479
5646 5649 5643 5639 5644 5645 5645 5644 5641 5635 5628 5618 5608 5599 5590 5579 5567 5557 5547 5539 5532 5526 5521 5516 5512 5508 5505 5503 5500 5499 5498 5496 5493 5490 5489 5486 5484 5482 5479 5478 5477 5476 5476 5476
5650 5650 5644 5642 5648 5642 5638 5639 5637 5629 5620 5612 5602 5591 5582 5575 5564 5554 5545 5537 5531 5525 5520 5515 5511 5507 5504 5502 5500 5498 5497 5494 5491 5488 5485 5483 5481 5478 5477 5475 5473 5473 5474 5474